Regional Weather Roundup
Issued by NWS

Home | Current Version | Previous Version | Text Only | Print | Product List | Glossary On
Versions: 1 2 3 4 5 6 7 8 9 10 11 12 13 14 15 16 17 18 19 20 21 22 23 24 25 26 27 28 29 30 31 32 33 34 35 36 37 38 39 40 41 42 43 44 45 46 47 48 49 50
000
ASUS43 KMPX 041710
RWRMN
WEATHER ROUNDUP FOR MINNESOTA
NATIONAL WEATHER SERVICE TWIN CITIES/CHANHASSEN MN
1100 AM CST SUN DEC 04 2016


NOTE: "FAIR" INDICATES FEW OR NO CLOUDS BELOW 12,000 FEET WITH NO
SIGNIFICANT WEATHER AND/OR OBSTRUCTIONS TO VISIBILITY. N/A MEANS
CURRENT SKY AND/OR WEATHER CONDITIONS ARE NOT AVAILABLE.

MNZ060>063-068>070-041800-
   Twin Cities Metro

CITY           SKY/WX    TMP DP  RH WIND       PRES   REMARKS
TWIN CITIES    CLOUDY    34  32  92 S8        29.87F FOG     WCI  27
ST PAUL        CLOUDY    33  33 100 S9        29.88F FOG     WCI  25
CRYSTAL        CLOUDY    33  31  92 S8        29.85F FOG     WCI  26
BLAINE         CLOUDY    36  36 100 S7        29.86F FOG
LAKEVILLE      CLOUDY    32  32 100 S6        29.86F FOG     WCI  26
EDEN PRAIRIE   CLOUDY    35  32  88 S9        29.85F FOG     WCI  28
SOUTH ST PAUL  CLOUDY    33  33  98 S6        29.87F FOG     WCI  28
LAKE ELMO      CLOUDY    34  32  93 S12       29.88F FOG     WCI  25
$$
MNZ001>005-007-008-013>017-022>024-027-028-041800-
   Northwest Minnesota

CITY           SKY/WX    TMP DP  RH WIND       PRES   REMARKS
BEMIDJI        LGT SNOW  32  31  95 SE9       29.73F WCI  24
HALLOCK        CLOUDY    34  32  93 S13       29.66S FOG     WCI  25
ROSEAU         LGT SNOW  34  28  80 SE10      29.69F WCI  26
WARROAD        LGT SNOW  32  28  86 SE13      29.71F WCI  22
THIEF RVR FALL LGT RAIN  33  32  96 S10       29.70S FOG     WCI  25
CROOKSTON      CLOUDY    34  34 100 S12       29.70F FOG     WCI  25
FOSSTON        LGT SNOW  30  30 100 S12       29.71S WCI  21
DETROIT LAKES  CLOUDY    34  32  93 S14       29.72F WCI  24
MOORHEAD       RAIN      32  30  93 SW8       29.73F WCI  25
PARK RAPIDS    LGT SNOW  33  29  85 S12       29.72F FOG     WCI  24
$$
MNZ006-009>011-018-025>026-041800-
   North Central Minnesota

CITY           SKY/WX    TMP DP  RH WIND       PRES   REMARKS
BAUDETTE       CLOUDY    30  27  88 SE9       29.74F WCI  22
FLAG ISLAND    CLOUDY    30  28  93 SE15      29.72F WCI  19
INTL FALLS     LGT SNOW  30  27  88 SE8       29.79F VSB 3/4 WCI  22
WASKISH        FLURRIES  32  30  93 SE7       29.75F WCI  26
BIG FORK       LGT SNOW  30  27  86 SE8       29.78F WCI  23
LONGVILLE      LGT SNOW  32  30  93 SE8       29.76F WCI  25
GRAND RAPIDS   FLURRIES  30  28  92 SE9       29.81F WCI  22
CRANE LAKE     LGT SNOW  28  27  93 SE3       29.85F
ORR            MIX PCPN  28  27  93 S7        29.78F WCI  21
COOK           LGT SNOW  30  27  86 SE10G16   29.82F WCI  21
$$
MNZ012-019>021-037-041800-
   Northeast Minnesota

CITY           SKY/WX    TMP DP  RH WIND       PRES   REMARKS
DULUTH         LGT SNOW  30  29  96 SE10      29.84F FOG     WCI  21
ELY            LGT SNOW  28  28 100 SE9       29.85F WCI  20
HIBBING        LGT SNOW  28  26  92 SE9       29.82F FOG     WCI  19
EVELETH        LGT SNOW  30  28  92 SE6       29.84F WCI  24
DULUTH HARBOR  MIX PCPN  34  30  86 CALM      29.89F
TWO HARBORS    LGT SNOW  34  28  80 E5        29.86F WCI  30
SILVER BAY     LGT SNOW  32  30  93 SE6       29.88F VSB 3/4 WCI  26
GRAND MARAIS     N/A     34  31  88 SE9       29.95F WCI  27
G MARAIS ARPRT LGT SNOW  27  23  86 SE7       29.90F WCI  19
$$
MNZ029>031-032-039>041-046>048-054>057-064-041800-
   West Central Minnesota

CITY           SKY/WX    TMP DP  RH WIND       PRES   REMARKS
FERGUS FALLS   LGT SNOW  32  32 100 SW8       29.78F VSB 1   WCI  25
WHEATON        CLOUDY   N/A N/A N/A SW9       29.78S
MORRIS         CLOUDY    34  32  93 SW12      29.76F WCI  25
ALEXANDRIA     CLOUDY    33  32  96 S15       29.76F WCI  23
ELBOW LAKE     LGT SNOW  32  32 100 W12       29.75F VSB 1   WCI  23
WADENA         CLOUDY    32  30  93 S10       29.74F FOG     WCI  24
GLENWOOD       LGT SNOW  34  30  86 S13       29.77F WCI  25
APPLETON       PTSUNNY   37  34  87 W12       29.78F
BENSON         CLOUDY    36  32  87 W12       29.79S
ORTONVILLE     SUNNY     37  30  75 W14       29.77F
MADISON        SUNNY     39  34  81 W14       29.79F
WILLMAR        CLOUDY    36  34  93 S5        29.81F
$$
MNZ033>034-036-042>043-049>051-058-059-041800-
   Central Minnesota

CITY           SKY/WX    TMP DP  RH WIND       PRES   REMARKS
ST CLOUD       CLOUDY    33  33 100 S10       29.81F FOG     WCI  25
PAYNESVILLE    CLOUDY    33  34 100 S9        29.80F WCI  26
AITKIN         MIX PCPN  34  28  80 SE9G17    29.79F WCI  26
PINE RIVER     CLOUDY    32  32 100 SE9       29.80F FOG     WCI  24
BRAINERD       LGT SNOW  32  31  96 SE12G18   29.78F FOG     WCI  23
STAPLES        CLOUDY    30  30 100 S12       29.76F FOG     WCI  21
LONG PRAIRIE   CLOUDY    32  32 100 SE12      29.77F FOG     WCI  23
LITTLE FALLS   CLOUDY    32  32 100 S7        29.79F FOG     WCI  26
LITCHFIELD     CLOUDY    36  36 100 S5        29.81F
BUFFALO        CLOUDY    33  32  94 SE6       29.84F FOG     WCI  28
MAPLE LAKE     CLOUDY    34  34  99 S6        29.83F FOG     WCI  29
HUTCHINSON     CLOUDY    36  34  93 S8        29.83F
$$
MNZ037-044-045-052-053-041800-
   East Central Minnesota

CITY           SKY/WX    TMP DP  RH WIND       PRES   REMARKS
PRINCETON      CLOUDY    34  32  93 SE9       29.84F FOG     WCI  26
MORA           CLOUDY    32  30  93 S7        29.85F FOG     WCI  26
CAMBRIDGE      CLOUDY    34  30  86 SE7       29.83F FOG     WCI  28
RUSH CITY      CLOUDY    32  30  93 S9        29.86F WCI  24
MOOSE LAKE     FLURRIES  32  30  93 S7        29.83F WCI  26
HINCKLEY       FLURRIES  32  32 100 SE8       29.85F WCI  25
CLOQUET        LGT SNOW  28  28 100 SE3       29.84F
MCGREGOR       CLOUDY    32  30  93 SE9       29.82F WCI  24
$$
MNZ071>073-080-081-089-090-097-098-041800-
   Southwest Minnesota

CITY           SKY/WX    TMP DP  RH WIND       PRES   REMARKS
MONTEVIDEO     PTSUNNY   37  37 100 W8G16     29.82F
GRANITE FALLS  CLOUDY    38  34  84 SW16      29.83F
CANBY          SUNNY     38  31  77 SW17      29.82S
MARSHALL       MOSUNNY   37  32  81 SW16      29.82F
REDWOOD FALLS  CLOUDY    38  32  79 W12       29.82F
OLIVIA         CLOUDY    36  34  93 SW12      29.81F
PIPESTONE      SUNNY     36  30  80 W13       29.83S
WINDOM         PTSUNNY   36  32  87 SW15      29.84F
WORTHINGTON    CLOUDY    35  32  88 SW13      29.85F WCI  26
JACKSON        PTSUNNY   34  32  93 SW12      29.86F WCI  25
TRACY          CLOUDY    36  32  88 SW13G20   29.83F
SLAYTON        CLOUDY    33  32  94 SW12G21   29.84F WCI  25
$$
MNZ065>067-074>077-082>085-091>093-041800-
   South Central Minnesota

CITY           SKY/WX    TMP DP  RH WIND       PRES   REMARKS
MANKATO        CLOUDY    34  32  93 S12       29.86F WCI  25
NEW ULM        PTSUNNY   37  34  87 SW13      29.84F
ST JAMES       CLOUDY    36  32  87 S12       29.86F
FAIRMONT       CLOUDY    35  31  85 SW14      29.87F WCI  26
GLENCOE        CLOUDY    34  35 100 S6        29.84F FOG     WCI  29
FARIBAULT      CLOUDY    34  34 100 S7        29.88F FOG     WCI  28
OWATONNA       FOG       34  32  93 S10       29.88F VSB 1   WCI  26
WASECA         CLOUDY    32  32 100 S13       29.89F FOG     WCI  22
ALBERT LEA     FOG       36  36 100 SW6       29.88F VSB 1/4
$$
MNZ078>079-086>088-094>096-041800-
   Southeast Minnesota

CITY           SKY/WX    TMP DP  RH WIND       PRES   REMARKS
ROCHESTER      CLOUDY    33  32  96 S13       29.89F FOG     WCI  24
RED WING       CLOUDY    34  32  93 S7        29.89F WCI  28
STANTON        CLOUDY    35  33  92 S8        29.87F FOG     WCI  28
DODGE CENTER   FOG       32  32 100 S13       29.88F VSB 3/4 WCI  22
WINONA         LGT SNOW  34  32  93 SE6       29.94F WCI  29
AUSTIN         FOG       34  30  86 SW14      29.89F VSB 1   WCI  24
PRESTON        LGT SNOW  32  31  95 S12       29.91F WCI  23
$$
ABBREVIATIONS USED IN REMARKS
   TC - TEMPERATURES IN CELSIUS
  WCI - WIND CHILL INDEX
   HX - HEAT INDEX
  VSB - VISIBILITY
$$



USA.gov is the U.S. government's official web portal to all federal, state and local government web resources and services.